LiveATC.Net - Listen to live air traffic control over the Internet!


ICAO: CYAV  IATA: YAV   Airport: Winnipeg St. Andrews Airport
City: Winnipeg   State/Province: Manitoba
Country: Canada   Continent: North America
CYWG METAR Weather: CYWG 152200Z 29013KT 15SM FEW035TCU 27/18 A2970 RMK TCU1 TCU TR SLP058 DENSITY ALT 2700FT
CYAV Flight Activity (FlightAware)

CYAV CTAF/Center
Feed Status: UP   Listeners: 1
Listen in your browser - HTML5 player (in browser, HTML5)
Click here to listen with your own player (launches your MP3 player)
CYAV CTAF/Center Audio Archives
FacilityFrequency
St. Andrews Ground121.800
St. Andrews Tower118.500
Winnipeg Center118.000
Winnipeg Center121.000

NOTICE

Unauthorized use prohibited. See LiveATC.net Terms of Service


Find LiveATC Audio Streams


Airport/ARTCC Code

Frequency Search
(e.g., 124.400, 128.75)
Site-wide search
 


Browse LiveATC Feeds
Top 50 LiveATC Feeds
LiveATC Feed Map
Bad Weather Areas

LiveATC FAQ
Offer LiveATC feed
Contact LiveATC.net
Press Inquiries

LiveATC on iPhone
LiveATC on Android

Windows Phone
Windows 8/10

LiveATC Mobile
(Mobile browser)

ATC Audio Archives
Interesting Recordings

LiveATC Forums


Home Page
About LiveATC.net
Make a Donation
Terms of Use
Privacy Policy

Canadian Air Freqs

AIRMETs/SIGMETs

FAA Airport Status
Nat'l Airspace Status
Arrival Demand Charts


Server Software By:
Icecast.org
Liquidsoap